| time (UTC) | temp F | wind direction | speed MPH | gust MPH | rain 1hr in | rain 24hr in | rain mn in | humidity % | barometer mb |
| 20260906181123 | 70 | 305 | 0.0 | 1.0 | 0.07 | 0.31 | 0.00 | 90 | 1016.3 |
| 20260906180604 | 70 | 283 | 1.0 | 4.0 | 0.08 | 0.31 | 0.00 | 91 | 1016.5 |
| 20260906180043 | 69 | 52 | 0.0 | 1.0 | 0.07 | 0.30 | 0.00 | 92 | 1016.4 |
| 20260906175524 | 69 | 52 | 0.0 | 4.0 | 0.05 | 0.29 | 0.00 | 92 | 1016.3 |
| 20260906175003 | 69 | 339 | 1.0 | 4.0 | 0.07 | 0.29 | 0.00 | 90 | 1016.4 |
| 20260906174444 | 69 | 286 | 0.0 | 4.0 | 0.05 | 0.27 | 0.00 | 91 | 1016.6 |
| 20260906173924 | 69 | 287 | 0.0 | 3.0 | 0.07 | 0.27 | 0.00 | 90 | 1016.6 |
| 20260906173404 | 69 | 286 | 0.0 | 3.0 | 0.08 | 0.27 | 0.00 | 91 | 1016.7 |
| 20260906172843 | 68 | 0.0 | 0.0 | 0.10 | 0.27 | 0.00 | 91 | 1016.6 | |
| 20260906172323 | 69 | 0.0 | 0.0 | 0.10 | 0.26 | 0.00 | 90 | 1016.6 | |
| 20260906171804 | 68 | 0.0 | 1.0 | 0.09 | 0.24 | 0.00 | 91 | 1016.6 | |
| 20260906171244 | 68 | 265 | 1.0 | 4.0 | 0.10 | 0.24 | 0.00 | 91 | 1016.6 |
| 20260906170723 | 68 | 17 | 1.0 | 4.0 | 0.10 | 0.23 | 0.00 | 90 | 1016.1 |
| 20260906170203 | 68 | 34 | 1.0 | 4.0 | 0.11 | 0.23 | 0.00 | 90 | 1015.9 |
| 20260906165643 | 68 | 18 | 0.0 | 3.0 | 0.11 | 0.23 | 0.00 | 90 | 1015.8 |
| 20260906165123 | 67 | 122 | 1.0 | 4.0 | 0.11 | 0.23 | 0.00 | 91 | 1015.6 |
| 20260906164604 | 67 | 0.0 | 1.0 | 0.10 | 0.22 | 0.00 | 91 | 1015.7 | |
| 20260906164044 | 67 | 0.0 | 1.0 | 0.09 | 0.21 | 0.00 | 91 | 1015.7 | |
| 20260906163523 | 67 | 0.0 | 0.0 | 0.08 | 0.20 | 0.00 | 91 | 1015.8 | |
| 20260906163003 | 67 | 0.0 | 2.0 | 0.05 | 0.18 | 0.00 | 91 | 1015.9 | |
| 20260906162444 | 67 | 128 | 0.0 | 2.0 | 0.05 | 0.18 | 0.00 | 90 | 1015.9 |
| 20260906161924 | 67 | 0.0 | 7.0 | 0.03 | 0.15 | 0.00 | 90 | 1015.9 | |
| 20260906161403 | 67 | 0.0 | 2.0 | 0.03 | 0.15 | 0.00 | 90 | 1015.7 | |
| 20260906160844 | 68 | 0.0 | 2.0 | 0.01 | 0.13 | 0.00 | 89 | 1015.6 | |
| 20260906160323 | 67 | 128 | 0.0 | 2.0 | 0.00 | 0.12 | 0.00 | 89 | 1015.6 |
| 20260906155804 | 68 | 128 | 0.0 | 2.0 | 0.00 | 0.12 | 0.00 | 88 | 1015.5 |
| 20260906155243 | 68 | 0.0 | 0.0 | 0.00 | 0.12 | 0.00 | 87 | 1015.3 | |
| 20260906154723 | 68 | 0.0 | 2.0 | 0.03 | 0.12 | 0.00 | 86 | 1015.0 | |
| 20260906154204 | 68 | 0.0 | 0.0 | 0.04 | 0.12 | 0.00 | 86 | 1014.9 | |
| 20260906153643 | 68 | 0.0 | 0.0 | 0.04 | 0.12 | 0.00 | 86 | 1014.8 | |
| 20260906153124 | 68 | 0.0 | 0.0 | 0.07 | 0.12 | 0.00 | 86 | 1014.6 | |
| 20260906152604 | 68 | 0.0 | 2.0 | 0.08 | 0.12 | 0.00 | 87 | 1014.5 | |
| 20260906152044 | 68 | 63 | 1.0 | 7.0 | 0.10 | 0.12 | 0.00 | 87 | 1014.3 |
| 20260906151524 | 67 | 0.0 | 2.0 | 0.10 | 0.77 | 0.00 | 87 | 1014.2 | |
| 20260906151004 | 67 | 63 | 0.0 | 2.0 | 0.10 | 0.77 | 0.00 | 87 | 1014.1 |
| 20260906150443 | 67 | 63 | 0.0 | 3.0 | 0.77 | 0.77 | 0.00 | 87 | 1014.1 |
| 20260906145923 | 67 | 36 | 0.0 | 2.0 | 0.77 | 0.77 | 0.00 | 86 | 1014.2 |
| 20260906145403 | 67 | 0.0 | 2.0 | 0.77 | 0.77 | 0.00 | 87 | 1014.2 | |
| 20260906144844 | 67 | 117 | 0.0 | 7.0 | 0.77 | 0.77 | 0.00 | 87 | 1014.1 |
| 20260906144329 | 67 | 45 | 0.0 | 2.0 | 0.73 | 0.73 | 0.00 | 80 | 1014.1 |
| 20260906124139 | 68 | 0.0 | 0.0 | 0.00 | 0.00 | 0.00 | 84 | 1014.5 | |
| 20260906115257 | 74 | 0.0 | 0.0 | 0.00 | 0.00 | 0.00 | 56 | 1012.4 | |
| 20260906114737 | 74 | 0.0 | 0.0 | 0.00 | 0.00 | 0.00 | 57 | 1012.4 | |
| 20260906114218 | 74 | 0.0 | 0.0 | 0.00 | 0.00 | 0.00 | 57 | 1012.4 | |
| 20260906113657 | 74 | 0.0 | 0.0 | 0.00 | 0.00 | 0.00 | 58 | 1012.5 | |
| 20260906113137 | 74 | 0.0 | 0.0 | 0.00 | 0.00 | 0.00 | 58 | 1012.5 | |
| 20260906112617 | 73 | 0.0 | 0.0 | 0.00 | 0.00 | 0.00 | 59 | 1012.6 | |
| 20260906112057 | 73 | 0.0 | 0.0 | 0.00 | 0.00 | 0.00 | 59 | 1012.6 | |
| 20260906111538 | 74 | 0.0 | 0.0 | 0.00 | 0.00 | 0.00 | 59 | 1012.6 | |
| 20260906111017 | 73 | 0.0 | 0.0 | 0.00 | 0.00 | 0.00 | 60 | 1012.5 | |
| 20260906110457 | 73 | 0.0 | 0.0 | 0.00 | 0.00 | 0.00 | 62 | 1012.5 | |
| 20260906105937 | 73 | 0.0 | 0.0 | 0.00 | 0.00 | 0.00 | 63 | 1012.5 | |
| 20260906105418 | 73 | 0.0 | 0.0 | 0.00 | 0.00 | 0.00 | 64 | 1012.5 | |
| 20260906104858 | 73 | 0.0 | 0.0 | 0.00 | 0.00 | 0.00 | 64 | 1012.6 | |
| 20260906104338 | 73 | 0.0 | 0.0 | 0.00 | 0.00 | 0.00 | 65 | 1012.6 | |
| 20260906103817 | 73 | 0.0 | 0.0 | 0.00 | 0.00 | 0.00 | 65 | 1012.6 | |
| 20260906103258 | 73 | 0.0 | 0.0 | 0.00 | 0.00 | 0.00 | 65 | 1012.6 | |
| 20260906102737 | 73 | 0.0 | 0.0 | 0.00 | 0.00 | 0.00 | 67 | 1012.5 | |
| 20260906102217 | 73 | 0.0 | 0.0 | 0.00 | 0.00 | 0.00 | 68 | 1012.5 | |
| 20260906101658 | 73 | 0.0 | 0.0 | 0.00 | 0.00 | 0.00 | 66 | 1012.5 | |
| 20260906101138 | 73 | 0.0 | 0.0 | 0.00 | 0.00 | 0.00 | 66 | 1012.5 | |
| 20260906100618 | 73 | 0.0 | 0.0 | 0.00 | 0.00 | 0.00 | 65 | 1012.5 | |
| 20260906100057 | 73 | 0.0 | 0.0 | 0.00 | 0.00 | 0.00 | 63 | 1012.6 | |
| 20260906095537 | 73 | 0.0 | 0.0 | 0.00 | 0.00 | 0.00 | 63 | 1012.6 | |
| 20260906095018 | 73 | 0.0 | 0.0 | 0.00 | 0.00 | 0.00 | 64 | 1012.7 | |
| 20260906094458 | 73 | 0.0 | 0.0 | 0.00 | 0.00 | 0.00 | 66 | 1012.6 | |
| 20260906093938 | 73 | 0.0 | 1.0 | 0.00 | 0.00 | 0.00 | 66 | 1012.6 | |
| 20260906093418 | 73 | 0.0 | 0.0 | 0.00 | 0.00 | 0.00 | 66 | 1012.6 | |
| 20260906092858 | 73 | 0.0 | 0.0 | 0.00 | 0.00 | 0.00 | 69 | 1012.6 | |
| 20260906092338 | 73 | 0.0 | 0.0 | 0.00 | 0.00 | 0.00 | 70 | 1012.6 | |
| 20260906091817 | 73 | 0.0 | 0.0 | 0.00 | 0.00 | 0.00 | 70 | 1012.6 | |
| 20260906091257 | 73 | 0.0 | 0.0 | 0.00 | 0.00 | 0.00 | 71 | 1012.6 | |
| 20260906090738 | 73 | 0.0 | 0.0 | 0.00 | 0.00 | 0.00 | 71 | 1012.6 | |
| 20260906090217 | 73 | 0.0 | 0.0 | 0.00 | 0.00 | 0.00 | 71 | 1012.7 | |
| 20260906085658 | 73 | 0.0 | 0.0 | 0.00 | 0.00 | 0.00 | 70 | 1012.7 | |
| 20260906085138 | 72 | 0.0 | 0.0 | 0.00 | 0.00 | 0.00 | 71 | 1012.8 | |
| 20260906084617 | 72 | 0.0 | 0.0 | 0.00 | 0.00 | 0.00 | 72 | 1012.8 | |
| 20260906084058 | 72 | 0.0 | 0.0 | 0.00 | 0.00 | 0.00 | 73 | 1012.8 | |
| 20260906083538 | 72 | 0.0 | 0.0 | 0.00 | 0.00 | 0.00 | 74 | 1012.8 | |
| 20260906083018 | 72 | 0.0 | 0.0 | 0.00 | 0.00 | 0.00 | 76 | 1012.8 | |
| 20260906082458 | 72 | 0.0 | 0.0 | 0.00 | 0.00 | 0.00 | 77 | 1012.9 | |
| 20260906081937 | 72 | 0.0 | 0.0 | 0.00 | 0.00 | 0.00 | 77 | 1013.0 | |
| 20260906081418 | 72 | 0.0 | 0.0 | 0.00 | 0.00 | 0.00 | 77 | 1013.0 | |
| 20260906080858 | 72 | 0.0 | 0.0 | 0.00 | 0.00 | 0.00 | 77 | 1013.0 | |
| 20260906080337 | 72 | 0.0 | 0.0 | 0.00 | 0.00 | 0.00 | 76 | 1013.0 | |
| 20260906075817 | 72 | 0.0 | 0.0 | 0.00 | 0.00 | 0.00 | 76 | 1013.0 | |
| 20260906075258 | 72 | 0.0 | 0.0 | 0.00 | 0.00 | 0.00 | 76 | 1013.0 | |
| 20260906074737 | 72 | 0.0 | 0.0 | 0.00 | 0.00 | 0.00 | 76 | 1013.0 | |
| 20260906074218 | 72 | 0.0 | 0.0 | 0.00 | 0.00 | 0.00 | 76 | 1013.0 | |
| 20260906073657 | 72 | 0.0 | 0.0 | 0.00 | 0.00 | 0.00 | 77 | 1013.0 | |
| 20260906073137 | 72 | 0.0 | 0.0 | 0.00 | 0.00 | 0.00 | 75 | 1013.0 | |
| 20260906072618 | 72 | 0.0 | 1.0 | 0.00 | 0.00 | 0.00 | 75 | 1013.0 | |
| 20260906072058 | 72 | 213 | 1.0 | 2.0 | 0.00 | 0.00 | 0.00 | 76 | 1013.0 |
| 20260906071538 | 72 | 213 | 1.0 | 2.0 | 0.00 | 0.00 | 0.00 | 76 | 1012.9 |
| 20260906071018 | 73 | 0.0 | 0.0 | 0.00 | 0.00 | 0.00 | 75 | 1012.9 | |
| 20260906070458 | 73 | 0.0 | 1.0 | 0.00 | 0.00 | 0.00 | 75 | 1012.9 | |
| 20260906065937 | 72 | 0.0 | 1.0 | 0.00 | 0.00 | 0.00 | 75 | 1012.9 | |
| 20260906065418 | 72 | 0.0 | 0.0 | 0.00 | 0.00 | 0.00 | 75 | 1012.8 | |
| 20260906064858 | 73 | 0.0 | 0.0 | 0.00 | 0.00 | 0.00 | 75 | 1012.8 | |
| 20260906064337 | 73 | 0.0 | 0.0 | 0.00 | 0.00 | 0.00 | 74 | 1012.9 | |
| 20260906063817 | 73 | 0.0 | 1.0 | 0.00 | 0.00 | 0.00 | 75 | 1012.9 | |
| 20260906063258 | 73 | 0.0 | 1.0 | 0.00 | 0.00 | 0.00 | 75 | 1013.0 | |
| 20260906062738 | 73 | 0.0 | 0.0 | 0.00 | 0.00 | 0.00 | 74 | 1013.0 | |
| 20260906062217 | 73 | 0.0 | 0.0 | 0.00 | 0.00 | 0.00 | 73 | 1013.1 | |
| 20260906061658 | 73 | 0.0 | 1.0 | 0.00 | 0.00 | 0.00 | 73 | 1013.1 | |
| 20260906061137 | 73 | 214 | 0.0 | 2.0 | 0.00 | 0.00 | 0.00 | 73 | 1013.0 |
| 20260906060618 | 73 | 0.0 | 0.0 | 0.00 | 0.00 | 0.00 | 73 | 1013.0 | |
| 20260906060058 | 73 | 0.0 | 0.0 | 0.00 | 0.00 | 0.00 | 72 | 1013.0 | |
| 20260906055538 | 73 | 0.0 | 1.0 | 0.00 | 0.00 | 0.00 | 71 | 1013.1 | |
| 20260906055018 | 73 | 0.0 | 1.0 | 0.00 | 0.00 | 0.00 | 71 | 1013.1 | |
| 20260906054457 | 73 | 213 | 0.0 | 1.0 | 0.00 | 0.00 | 0.00 | 70 | 1013.1 |
| 20260906053937 | 73 | 213 | 0.0 | 1.0 | 0.00 | 0.00 | 0.00 | 70 | 1013.1 |
| 20260906053417 | 73 | 0.0 | 0.0 | 0.00 | 0.00 | 0.00 | 69 | 1013.2 | |
| 20260906052858 | 74 | 213 | 0.0 | 2.0 | 0.00 | 0.00 | 0.00 | 68 | 1013.2 |
| 20260906052337 | 74 | 0.0 | 1.0 | 0.00 | 0.00 | 0.00 | 67 | 1013.2 | |
| 20260906051818 | 74 | 213 | 0.0 | 1.0 | 0.00 | 0.00 | 0.00 | 65 | 1013.2 |
| 20260906051258 | 74 | 213 | 0.0 | 2.0 | 0.00 | 0.00 | 0.00 | 64 | 1013.2 |
| 20260906050738 | 74 | 212 | 0.0 | 1.0 | 0.00 | 0.00 | 0.00 | 64 | 1013.2 |
| 20260906050218 | 74 | 214 | 0.0 | 2.0 | 0.00 | 0.00 | 0.00 | 64 | 1013.2 |
| 20260906045658 | 74 | 0.0 | 1.0 | 0.00 | 0.00 | 0.00 | 63 | 1013.2 | |
| 20260906045137 | 74 | 213 | 0.0 | 2.0 | 0.00 | 0.00 | 0.00 | 63 | 1013.2 |
| 20260906044618 | 74 | 0.0 | 1.0 | 0.00 | 0.00 | 0.00 | 62 | 1013.2 | |
| 20260906044058 | 74 | 0.0 | 1.0 | 0.00 | 0.00 | 0.00 | 62 | 1013.2 | |
| 20260906043537 | 75 | 213 | 0.0 | 1.0 | 0.00 | 0.00 | 0.00 | 61 | 1013.2 |
| 20260906043018 | 75 | 0.0 | 1.0 | 0.00 | 0.00 | 0.00 | 61 | 1013.2 | |
| 20260906042458 | 75 | 213 | 0.0 | 2.0 | 0.00 | 0.00 | 0.00 | 60 | 1013.2 |
| 20260906041938 | 75 | 213 | 0.0 | 1.0 | 0.00 | 0.00 | 0.00 | 59 | 1013.2 |
| 20260906041418 | 75 | 213 | 1.0 | 3.0 | 0.00 | 0.00 | 0.00 | 59 | 1013.2 |
| 20260906040858 | 75 | 0.0 | 0.0 | 0.00 | 0.00 | 0.00 | 57 | 1013.2 | |
| 20260906040338 | 75 | 0.0 | 0.0 | 0.00 | 0.00 | 0.00 | 56 | 1013.1 | |
| 20260906035818 | 75 | 214 | 1.0 | 2.0 | 0.00 | 0.00 | 0.00 | 56 | 1013.0 |
| 20260906035258 | 75 | 207 | 1.0 | 2.0 | 0.00 | 0.00 | 0.00 | 55 | 1013.0 |
| 20260906034738 | 76 | 0.0 | 2.0 | 0.00 | 0.00 | 0.00 | 53 | 1013.0 | |
| 20260906034218 | 76 | 0.0 | 1.0 | 0.00 | 0.00 | 0.00 | 52 | 1012.9 | |
| 20260906033658 | 76 | 131 | 0.0 | 1.0 | 0.00 | 0.00 | 0.00 | 51 | 1012.9 |
| 20260906033137 | 76 | 141 | 0.0 | 2.0 | 0.00 | 0.00 | 0.00 | 49 | 1012.8 |
| 20260906032617 | 77 | 0.0 | 2.0 | 0.00 | 0.00 | 0.00 | 47 | 1012.8 | |
| 20260906032057 | 77 | 0.0 | 2.0 | 0.00 | 0.00 | 0.00 | 46 | 1012.7 | |
| 20260906031538 | 77 | 251 | 0.0 | 2.0 | 0.00 | 0.00 | 0.00 | 45 | 1012.6 |
| 20260906031017 | 77 | 0.0 | 1.0 | 0.00 | 0.00 | 0.00 | 43 | 1012.5 | |
| 20260906030457 | 77 | 0.0 | 2.0 | 0.00 | 0.00 | 0.00 | 41 | 1012.4 | |
| 20260906025937 | 77 | 247 | 1.0 | 2.0 | 0.00 | 0.00 | 0.00 | 41 | 1012.4 |
| 20260906025418 | 77 | 237 | 2.0 | 3.0 | 0.00 | 0.00 | 0.00 | 41 | 1012.4 |
| 20260906024857 | 78 | 237 | 2.0 | 5.0 | 0.00 | 0.00 | 0.00 | 43 | 1012.4 |
| 20260906024338 | 78 | 233 | 1.0 | 3.0 | 0.00 | 0.00 | 0.00 | 44 | 1012.5 |
| 20260906022217 | 78 | 246 | 3.0 | 7.0 | 0.00 | 0.00 | 0.00 | 40 | 1012.5 |
| 20260906021658 | 79 | 239 | 3.0 | 7.0 | 0.00 | 0.00 | 0.00 | 38 | 1012.5 |
| 20260906021137 | 79 | 234 | 4.0 | 7.0 | 0.00 | 0.00 | 0.00 | 38 | 1012.5 |
| 20260906020617 | 79 | 253 | 2.0 | 7.0 | 0.00 | 0.00 | 0.00 | 38 | 1012.5 |
| 20260906020057 | 79 | 238 | 3.0 | 7.0 | 0.00 | 0.00 | 0.00 | 38 | 1012.4 |
| 20260906015537 | 80 | 238 | 3.0 | 7.0 | 0.00 | 0.00 | 0.00 | 37 | 1012.3 |
| 20260906015018 | 81 | 262 | 4.0 | 7.0 | 0.00 | 0.00 | 0.00 | 39 | 1012.3 |
| 20260906014458 | 82 | 233 | 4.0 | 8.0 | 0.00 | 0.00 | 0.00 | 38 | 1012.4 |
| 20260906013937 | 82 | 239 | 4.0 | 8.0 | 0.00 | 0.00 | 0.00 | 39 | 1012.4 |
| 20260906013417 | 83 | 250 | 5.0 | 8.0 | 0.00 | 0.00 | 0.00 | 38 | 1012.4 |
| 20260906012857 | 83 | 243 | 4.0 | 6.0 | 0.00 | 0.00 | 0.00 | 38 | 1012.5 |
| 20260906012338 | 83 | 231 | 4.0 | 9.0 | 0.00 | 0.00 | 0.00 | 39 | 1012.4 |
| 20260906011818 | 83 | 233 | 5.0 | 9.0 | 0.00 | 0.00 | 0.00 | 39 | 1012.4 |
| 20260906011257 | 83 | 233 | 4.0 | 10.0 | 0.00 | 0.00 | 0.00 | 40 | 1012.4 |
| 20260906010737 | 83 | 235 | 4.0 | 7.0 | 0.00 | 0.00 | 0.00 | 40 | 1012.3 |
| 20260906010218 | 81 | 253 | 4.0 | 7.0 | 0.00 | 0.00 | 0.00 | 42 | 1012.4 |
| 20260906005657 | 81 | 250 | 4.0 | 8.0 | 0.00 | 0.00 | 0.00 | 45 | 1012.4 |
| 20260906005137 | 81 | 251 | 4.0 | 7.0 | 0.00 | 0.00 | 0.00 | 44 | 1012.4 |
| 20260906004617 | 81 | 243 | 4.0 | 8.0 | 0.00 | 0.00 | 0.00 | 45 | 1012.4 |
| 20260906004057 | 82 | 233 | 4.0 | 8.0 | 0.00 | 0.00 | 0.00 | 44 | 1012.3 |
| 20260906003537 | 83 | 237 | 4.0 | 8.0 | 0.00 | 0.00 | 0.00 | 45 | 1012.3 |
| 20260906003017 | 83 | 232 | 5.0 | 8.0 | 0.00 | 0.00 | 0.00 | 45 | 1012.2 |
| 20260906002457 | 83 | 237 | 5.0 | 10.0 | 0.00 | 0.00 | 0.00 | 43 | 1012.2 |
| 20260906001937 | 85 | 240 | 5.0 | 8.0 | 0.00 | 0.00 | 0.00 | 43 | 1012.3 |
| 20260906001417 | 86 | 243 | 5.0 | 8.0 | 0.00 | 0.00 | 0.00 | 42 | 1012.3 |
| 20260906000857 | 85 | 239 | 5.0 | 8.0 | 0.00 | 0.00 | 0.00 | 45 | 1012.3 |
| 20260906000337 | 85 | 252 | 6.0 | 11.0 | 0.00 | 0.00 | 0.00 | 45 | 1012.3 |
| 20260905235817 | 85 | 228 | 3.0 | 7.0 | 0.00 | 0.00 | 0.00 | 46 | 1012.3 |
| 20260905235257 | 84 | 242 | 5.0 | 10.0 | 0.00 | 0.00 | 0.00 | 45 | 1012.2 |
| 20260905234737 | 85 | 233 | 3.0 | 10.0 | 0.00 | 0.00 | 0.00 | 46 | 1012.2 |
| 20260905234217 | 83 | 253 | 6.0 | 10.0 | 0.00 | 0.00 | 0.00 | 48 | 1012.2 |
| 20260905233657 | 84 | 234 | 5.0 | 8.0 | 0.00 | 0.00 | 0.00 | 45 | 1012.2 |
| 20260905233137 | 85 | 232 | 4.0 | 8.0 | 0.00 | 0.00 | 0.00 | 45 | 1012.2 |
| 20260905232617 | 85 | 231 | 4.0 | 10.0 | 0.00 | 0.00 | 0.00 | 45 | 1012.3 |
| 20260905232057 | 85 | 241 | 5.0 | 10.0 | 0.00 | 0.00 | 0.00 | 43 | 1012.3 |
| 20260905231537 | 86 | 244 | 6.0 | 11.0 | 0.00 | 0.00 | 0.00 | 42 | 1012.3 |
| 20260905231017 | 87 | 236 | 5.0 | 9.0 | 0.00 | 0.00 | 0.00 | 41 | 1012.3 |
| 20260905230457 | 86 | 254 | 5.0 | 10.0 | 0.00 | 0.00 | 0.00 | 44 | 1012.3 |
| 20260905225937 | 88 | 247 | 5.0 | 11.0 | 0.00 | 0.00 | 0.00 | 42 | 1012.3 |
| 20260905225417 | 87 | 260 | 4.0 | 8.0 | 0.00 | 0.00 | 0.00 | 43 | 1012.3 |
| 20260905224857 | 87 | 250 | 5.0 | 8.0 | 0.00 | 0.00 | 0.00 | 44 | 1012.4 |
| 20260905224337 | 87 | 236 | 4.0 | 8.0 | 0.00 | 0.00 | 0.00 | 43 | 1012.5 |
| 20260905223817 | 87 | 246 | 6.0 | 10.0 | 0.00 | 0.00 | 0.00 | 42 | 1012.5 |
| 20260905223257 | 88 | 231 | 3.0 | 7.0 | 0.00 | 0.00 | 0.00 | 41 | 1012.6 |
| 20260905222737 | 87 | 254 | 6.0 | 8.0 | 0.00 | 0.00 | 0.00 | 43 | 1012.6 |
| 20260905222217 | 89 | 240 | 4.0 | 7.0 | 0.00 | 0.00 | 0.00 | 39 | 1012.7 |
| 20260905221657 | 89 | 221 | 3.0 | 7.0 | 0.00 | 0.00 | 0.00 | 39 | 1012.8 |
| 20260905221137 | 87 | 238 | 4.0 | 10.0 | 0.00 | 0.00 | 0.00 | 41 | 1012.8 |
| 20260905220617 | 88 | 236 | 4.0 | 7.0 | 0.00 | 0.00 | 0.00 | 41 | 1012.9 |
| 20260905220057 | 89 | 251 | 4.0 | 10.0 | 0.00 | 0.00 | 0.00 | 39 | 1012.9 |
| 20260905215537 | 89 | 234 | 3.0 | 8.0 | 0.00 | 0.00 | 0.00 | 37 | 1012.9 |
| 20260905215017 | 88 | 238 | 5.0 | 8.0 | 0.00 | 0.00 | 0.00 | 38 | 1012.9 |
| 20260905214457 | 88 | 258 | 5.0 | 9.0 | 0.00 | 0.00 | 0.00 | 40 | 1013.0 |
| 20260905213937 | 88 | 241 | 5.0 | 10.0 | 0.00 | 0.00 | 0.00 | 39 | 1013.1 |
| 20260905213417 | 88 | 247 | 5.0 | 8.0 | 0.00 | 0.00 | 0.00 | 40 | 1013.0 |
| 20260905212857 | 88 | 248 | 4.0 | 7.0 | 0.00 | 0.00 | 0.00 | 39 | 1013.1 |
| 20260905212337 | 88 | 234 | 4.0 | 10.0 | 0.00 | 0.00 | 0.00 | 40 | 1013.2 |
| 20260905211817 | 87 | 240 | 4.0 | 8.0 | 0.00 | 0.00 | 0.00 | 40 | 1013.2 |
| 20260905211257 | 87 | 253 | 5.0 | 8.0 | 0.00 | 0.00 | 0.00 | 42 | 1013.2 |
| 20260905210739 | 87 | 254 | 4.0 | 7.0 | 0.00 | 0.00 | 0.00 | 43 | 1013.2 |
| 20260905210217 | 86 | 232 | 4.0 | 8.0 | 0.00 | 0.00 | 0.00 | 43 | 1013.3 |
| 20260905205657 | 86 | 252 | 6.0 | 11.0 | 0.00 | 0.00 | 0.00 | 45 | 1013.4 |
| 20260905205137 | 87 | 242 | 3.0 | 7.0 | 0.00 | 0.00 | 0.00 | 45 | 1013.4 |
| 20260905204617 | 87 | 240 | 5.0 | 10.0 | 0.00 | 0.00 | 0.00 | 44 | 1013.5 |
| 20260905204057 | 87 | 241 | 4.0 | 10.0 | 0.00 | 0.00 | 0.00 | 44 | 1013.6 |
| 20260905203538 | 87 | 235 | 5.0 | 10.0 | 0.00 | 0.00 | 0.00 | 44 | 1013.6 |
| 20260905203017 | 87 | 234 | 3.0 | 10.0 | 0.00 | 0.00 | 0.00 | 44 | 1013.6 |
| 20260905202457 | 87 | 233 | 5.0 | 11.0 | 0.00 | 0.00 | 0.00 | 42 | 1013.6 |
| 20260905201937 | 87 | 228 | 4.0 | 7.0 | 0.00 | 0.00 | 0.00 | 42 | 1013.6 |
| 20260905201417 | 87 | 240 | 4.0 | 9.0 | 0.00 | 0.00 | 0.00 | 41 | 1013.7 |
| 20260905200857 | 87 | 237 | 4.0 | 8.0 | 0.00 | 0.00 | 0.00 | 41 | 1013.8 |
| 20260905200337 | 88 | 246 | 4.0 | 8.0 | 0.00 | 0.00 | 0.00 | 40 | 1013.8 |
| 20260905195817 | 89 | 245 | 3.0 | 8.0 | 0.00 | 0.00 | 0.00 | 40 | 1013.8 |
| 20260905195257 | 89 | 244 | 3.0 | 7.0 | 0.00 | 0.00 | 0.00 | 39 | 1013.9 |
| 20260905194737 | 90 | 245 | 2.0 | 4.0 | 0.00 | 0.00 | 0.00 | 36 | 1014.0 |
| 20260905194217 | 90 | 131 | 2.0 | 5.0 | 0.00 | 0.00 | 0.00 | 36 | 1014.0 |
| 20260905193657 | 90 | 170 | 2.0 | 6.0 | 0.00 | 0.00 | 0.00 | 34 | 1014.0 |
| 20260905193137 | 90 | 156 | 1.0 | 4.0 | 0.00 | 0.00 | 0.00 | 36 | 1014.0 |
| 20260905192617 | 88 | 212 | 2.0 | 4.0 | 0.00 | 0.00 | 0.00 | 36 | 1014.0 |
| 20260905192057 | 89 | 207 | 2.0 | 4.0 | 0.00 | 0.00 | 0.00 | 37 | 1014.1 |
| 20260905191537 | 89 | 109 | 3.0 | 6.0 | 0.00 | 0.00 | 0.00 | 33 | 1014.2 |
| 20260905191017 | 88 | 247 | 1.0 | 4.0 | 0.00 | 0.00 | 0.00 | 31 | 1014.3 |
| 20260905190458 | 89 | 224 | 2.0 | 4.0 | 0.00 | 0.00 | 0.00 | 30 | 1014.4 |
| 20260905185937 | 89 | 216 | 1.0 | 3.0 | 0.00 | 0.00 | 0.00 | 31 | 1014.5 |
| 20260905185417 | 87 | 223 | 3.0 | 6.0 | 0.00 | 0.00 | 0.00 | 33 | 1014.5 |
| 20260905184857 | 88 | 258 | 2.0 | 6.0 | 0.00 | 0.00 | 0.00 | 33 | 1014.6 |
| 20260905184337 | 88 | 207 | 2.0 | 4.0 | 0.00 | 0.00 | 0.00 | 35 | 1014.6 |
| 20260905183817 | 88 | 110 | 2.0 | 7.0 | 0.00 | 0.00 | 0.00 | 36 | 1014.6 |
| 20260905183257 | 88 | 206 | 2.0 | 6.0 | 0.00 | 0.00 | 0.00 | 35 | 1014.7 |
| 20260905182737 | 88 | 195 | 1.0 | 3.0 | 0.00 | 0.00 | 0.00 | 33 | 1014.8 |
| 20260905182217 | 87 | 215 | 1.0 | 3.0 | 0.00 | 0.00 | 0.00 | 34 | 1014.9 |
| 20260905181657 | 86 | 199 | 2.0 | 4.0 | 0.00 | 0.00 | 0.00 | 39 | 1014.9 |